EW0611 Weather Reports


time (UTC)temp
F
wind
direction
speed
knots
gust
knots
rain 1hr
in
rain 24hr
in
rain mn
in
humidity
%
barometer
mb
20260505165516 80 293 0.9 2.6 0.00 0.00 0.00 43 1017.2
20260505164536 80 225 1.7 5.2 0.00 0.00 0.00 41 1017.4
20260505163516 80 45 0.9 3.5 0.00 0.00 0.00 42 1017.4
20260505162516 80 315 0.9 2.6 0.00 0.00 0.00 42 1017.4
20260505161516 80 248 0.9 2.6 0.00 0.00 0.00 43 1017.5
20260505160516 79 225 1.7 4.3 0.00 0.00 0.00 46 1017.4
20260505152515 77 248 0.9 5.2 0.00 0.00 0.00 52 1017.9
20260505151515 76 45 0.9 1.7 0.00 0.00 0.00 55 1018.0
20260505150515 76 315 0.9 2.6 0.00 0.00 0.00 55 1018.0
20260505140515 71 45 0.9 1.7 0.00 0.00 0.00 61 1017.7
20260505124515 63 0.0 1.7 0.00 0.00 0.00 78 1017.9
20260505123515 61 0.0 0.9 0.00 0.00 0.00 81 1017.8
20260505122516 60 0.0 0.9 0.00 0.00 0.00 84 1017.8
20260505121515 59 0.0 0.9 0.00 0.00 0.00 87 1017.8
20260505120515 57 0.0 0.9 0.00 0.00 0.00 88 1017.7
20260505115515 56 0.0 0.9 0.00 0.00 0.00 89 1017.7
20260505114515 55 0.0 0.0 0.00 0.00 0.00 90 1017.7
20260505113515 54 0.0 0.9 0.00 0.00 0.00 90 1017.6
20260505112515 54 0.0 0.0 0.00 0.00 0.00 89 1017.6
20260505111515 54 0.0 0.0 0.00 0.00 0.00 88 1017.6
20260505110515 54 0.0 0.0 0.00 0.00 0.00 88 1017.4
20260505101515 54 0.0 0.9 0.00 0.00 0.00 87 1016.9
20260505100515 54 0.0 0.9 0.00 0.00 0.00 86 1016.9
20260505095516 55 0.0 0.9 0.00 0.00 0.00 86 1016.8
20260505094535 55 0.0 0.0 0.00 0.00 0.00 85 1016.7
20260505093515 55 0.0 0.0 0.00 0.00 0.00 85 1016.5
20260505092557 55 0.0 0.9 0.00 0.00 0.00 85 1016.5
20260505091517 56 0.0 0.0 0.00 0.00 0.00 84 1016.5
20260505090517 56 0.0 0.9 0.00 0.00 0.00 84 1016.5
20260505085517 56 0.0 0.9 0.00 0.00 0.00 84 1016.5
20260505084538 56 0.0 0.0 0.00 0.00 0.00 83 1016.4
20260505083517 56 0.0 0.9 0.00 0.00 0.00 83 1016.4
20260505082537 57 0.0 0.0 0.00 0.00 0.00 82 1016.6
20260505081517 57 0.0 0.0 0.00 0.00 0.00 81 1016.5
20260505080537 58 0.0 0.9 0.00 0.00 0.00 80 1016.3
20260505075516 58 0.0 0.0 0.00 0.00 0.00 80 1016.4
20260505074518 58 0.0 0.9 0.00 0.00 0.00 79 1016.1
20260505073516 59 0.0 0.9 0.00 0.00 0.00 79 1016.1
20260505072517 59 0.0 0.9 0.00 0.00 0.00 78 1016.2
20260505071517 59 0.0 0.9 0.00 0.00 0.00 78 1016.1
20260505070517 59 0.0 0.9 0.00 0.00 0.00 77 1016.1
20260505065557 60 0.0 0.9 0.00 0.00 0.00 76 1016.1
20260505064517 60 0.0 2.6 0.00 0.00 0.00 76 1016.1
20260505063517 60 0.0 0.0 0.00 0.00 0.00 75 1016.0
20260505062558 61 0.0 0.9 0.00 0.00 0.00 74 1016.0
20260505061517 61 0.0 0.9 0.00 0.00 0.00 73 1016.1
20260505060516 62 0.0 0.9 0.00 0.00 0.00 73 1016.2
20260505055517 62 0.0 0.9 0.00 0.00 0.00 72 1016.2
20260505054516 62 0.0 2.6 0.00 0.00 0.00 72 1016.1
20260505053516 63 0.0 0.9 0.00 0.00 0.00 72 1016.2
20260505052537 63 0.0 1.7 0.00 0.00 0.00 71 1016.3
20260505051516 63 0.0 1.7 0.00 0.00 0.00 70 1016.2
20260505050516 63 225 0.9 6.1 0.00 0.00 0.00 70 1016.2
20260505041517 64 0.0 0.9 0.00 0.00 0.00 69 1016.1
20260505040516 65 0.0 0.0 0.00 0.00 0.00 68 1016.1
20260505035517 65 0.0 1.7 0.00 0.00 0.00 68 1016.1
20260505034517 65 0.0 1.7 0.00 0.00 0.00 67 1016.1
20260505033516 66 0.0 1.7 0.00 0.00 0.00 66 1016.0
20260505032517 66 0.0 1.7 0.00 0.00 0.00 66 1016.0
20260505031517 66 0.0 1.7 0.00 0.00 0.00 64 1016.0
20260505030558 67 0.0 1.7 0.00 0.00 0.00 63 1016.0
20260505025517 67 203 0.9 4.3 0.00 0.00 0.00 62 1016.0
20260505024557 67 0.0 5.2 0.00 0.00 0.00 60 1015.9
20260505023517 67 0.0 1.7 0.00 0.00 0.00 57 1015.9
20260505022516 66 0.0 2.6 0.00 0.00 0.00 56 1015.7
20260505021518 66 0.0 0.9 0.00 0.00 0.00 54 1015.7
20260505020517 66 0.0 0.9 0.00 0.00 0.00 54 1015.5
20260505015517 66 0.0 0.9 0.00 0.00 0.00 54 1015.3
20260505014517 66 0.0 0.9 0.00 0.00 0.00 53 1015.3
20260505013516 67 0.0 0.0 0.00 0.00 0.00 52 1015.2
20260505012517 67 0.0 0.9 0.00 0.00 0.00 53 1015.1
20260505011517 67 0.0 1.7 0.00 0.00 0.00 52 1015.0
20260505010517 67 0.0 0.9 0.00 0.00 0.00 52 1014.9
20260505005516 67 0.0 0.9 0.00 0.00 0.00 50 1014.7
20260505004516 68 0.0 0.9 0.00 0.00 0.00 50 1014.6
20260505003517 68 0.0 1.7 0.00 0.00 0.00 49 1014.5
20260505002536 69 0.0 0.0 0.00 0.00 0.00 49 1014.4
20260505001516 70 0.0 0.0 0.00 0.00 0.00 48 1014.3
20260505000516 71 0.0 0.9 0.00 0.00 0.00 45 1014.2
20260504235516 72 0.0 0.9 0.00 0.00 0.00 43 1014.1
20260504234517 73 0.0 0.0 0.00 0.00 0.00 42 1014.0
20260504233516 74 0.0 0.9 0.00 0.00 0.00 41 1014.0
20260504232516 74 0.0 0.9 0.00 0.00 0.00 41 1013.9
20260504231516 75 0.0 1.7 0.00 0.00 0.00 40 1013.8
20260504230516 75 0.0 0.9 0.00 0.00 0.00 40 1013.9
20260504225516 76 0.0 0.0 0.00 0.00 0.00 40 1013.9
20260504224517 77 45 0.9 4.3 0.00 0.00 0.00 38 1013.9
20260504223536 77 0.0 1.7 0.00 0.00 0.00 38 1014.0
20260504222516 77 68 0.9 1.7 0.00 0.00 0.00 37 1013.9
20260504221516 77 0.0 1.7 0.00 0.00 0.00 37 1014.0
20260504220517 77 0.0 0.9 0.00 0.00 0.00 38 1014.0
20260504215516 77 68 0.9 2.6 0.00 0.00 0.00 37 1014.0
20260504214516 78 270 0.9 2.6 0.00 0.00 0.00 36 1014.1
20260504213516 78 270 0.9 2.6 0.00 0.00 0.00 36 1014.1
20260504212516 78 270 0.9 2.6 0.00 0.00 0.00 36 1014.1
20260504211517 78 113 0.9 2.6 0.00 0.00 0.00 35 1014.2
20260504210536 79 0 0.9 1.7 0.00 0.00 0.00 35 1014.3
20260504205536 79 293 0.9 2.6 0.00 0.00 0.00 35 1014.2
20260504204516 80 45 0.9 2.6 0.00 0.00 0.00 34 1014.2
20260504203516 80 338 0.9 1.7 0.00 0.00 0.00 33 1014.4
20260504202517 79 293 0.9 2.6 0.00 0.00 0.00 35 1014.5
20260504201516 79 293 0.9 1.7 0.00 0.00 0.00 34 1014.6
20260504200516 79 270 0.9 6.1 0.00 0.00 0.00 35 1014.6
20260504195516 80 270 0.9 1.7 0.00 0.00 0.00 34 1014.7
20260504194516 80 225 1.7 5.2 0.00 0.00 0.00 35 1014.8
20260504193536 80 248 0.9 1.7 0.00 0.00 0.00 34 1015.0
20260504192516 79 293 0.9 3.5 0.00 0.00 0.00 35 1015.3
20260504191516 79 293 0.9 3.5 0.00 0.00 0.00 37 1015.2
20260504190517 79 0.0 1.7 0.00 0.00 0.00 37 1015.3
20260504185516 79 225 0.9 2.6 0.00 0.00 0.00 37 1015.4
20260504184516 79 270 0.9 2.6 0.00 0.00 0.00 36 1015.6
20260504183516 78 45 0.9 2.6 0.00 0.00 0.00 36 1015.6
20260504182516 78 225 0.9 2.6 0.00 0.00 0.00 36 1015.5
20260504181516 79 315 0.9 2.6 0.00 0.00 0.00 35 1015.9
20260504180516 78 23 0.9 1.7 0.00 0.00 0.00 38 1015.8
20260504175516 78 338 0.9 2.6 0.00 0.00 0.00 35 1016.0
20260504174515 77 270 0.9 2.6 0.00 0.00 0.00 35 1016.0
20260504173516 77 293 0.9 3.5 0.00 0.00 0.00 36 1016.1
20260504172516 76 248 0.9 1.7 0.00 0.00 0.00 40 1016.1
20260504171516 76 45 0.9 2.6 0.00 0.00 0.00 40 1016.5
20260504170516 75 23 0.9 2.6 0.00 0.00 0.00 38 1016.7